Year,Month,Day,Hour,Minute,Value (Times are PST for temperature in C)
2020,04,15,00,00,8.10
2020,04,15,00,01,8.10
2020,04,15,00,02,8.00
2020,04,15,00,03,8.00
2020,04,15,00,04,8.00
2020,04,15,00,05,8.00
2020,04,15,00,06,8.00
2020,04,15,00,07,7.90
2020,04,15,00,08,7.90
2020,04,15,00,09,7.90
2020,04,15,00,10,7.90
2020,04,15,00,11,7.90
2020,04,15,00,12,7.80
2020,04,15,00,13,7.80
2020,04,15,00,14,7.80
2020,04,15,00,15,7.80
2020,04,15,00,16,7.80
2020,04,15,00,17,7.80
2020,04,15,00,18,7.80
2020,04,15,00,19,7.70
2020,04,15,00,20,7.70
2020,04,15,00,21,7.70
2020,04,15,00,22,7.70
2020,04,15,00,23,7.70
2020,04,15,00,24,7.60
2020,04,15,00,25,7.60
2020,04,15,00,26,7.60
2020,04,15,00,27,7.60
2020,04,15,00,28,7.60
2020,04,15,00,29,7.60
2020,04,15,00,30,7.60
2020,04,15,00,31,7.50
2020,04,15,00,32,7.50
2020,04,15,00,33,7.50
2020,04,15,00,34,7.50
2020,04,15,00,35,7.50
2020,04,15,00,36,7.50
2020,04,15,00,37,7.50
2020,04,15,00,38,7.50
2020,04,15,00,39,7.50
2020,04,15,00,40,7.50
2020,04,15,00,41,7.50
2020,04,15,00,42,7.50
2020,04,15,00,43,7.50
2020,04,15,00,44,7.50
2020,04,15,00,45,7.50
2020,04,15,00,46,7.50
2020,04,15,00,47,7.50
2020,04,15,00,48,7.50
2020,04,15,00,49,7.60
2020,04,15,00,50,7.60
2020,04,15,00,51,7.60
2020,04,15,00,52,7.70
2020,04,15,00,53,7.70
2020,04,15,00,54,7.70
2020,04,15,00,55,7.80
2020,04,15,00,56,7.80
2020,04,15,00,57,7.80
2020,04,15,00,58,7.80
2020,04,15,00,59,7.80
2020,04,15,01,00,7.80
2020,04,15,01,01,7.80
2020,04,15,01,02,7.80
2020,04,15,01,03,7.80
2020,04,15,01,04,7.80
2020,04,15,01,05,7.80
2020,04,15,01,06,7.80
2020,04,15,01,07,7.80
2020,04,15,01,08,7.80
2020,04,15,01,09,7.80
2020,04,15,01,10,7.80
2020,04,15,01,11,7.90
2020,04,15,01,12,7.90
2020,04,15,01,13,7.90
2020,04,15,01,14,7.90
2020,04,15,01,15,7.90
2020,04,15,01,16,7.90
2020,04,15,01,17,8.00
2020,04,15,01,18,8.00
2020,04,15,01,19,8.00
2020,04,15,01,20,8.00
2020,04,15,01,21,8.10
2020,04,15,01,22,8.10
2020,04,15,01,23,8.10
2020,04,15,01,24,8.20
2020,04,15,01,25,8.20
2020,04,15,01,26,8.20
2020,04,15,01,27,8.20
2020,04,15,01,28,8.30
2020,04,15,01,29,8.30
2020,04,15,01,30,8.30
2020,04,15,01,31,8.30
2020,04,15,01,32,8.40
2020,04,15,01,33,8.40
2020,04,15,01,34,8.40
2020,04,15,01,35,8.40
2020,04,15,01,36,8.40
2020,04,15,01,37,8.40
2020,04,15,01,38,8.40
2020,04,15,01,39,8.40
2020,04,15,01,40,8.40
2020,04,15,01,41,8.40
2020,04,15,01,42,8.40
2020,04,15,01,43,8.40
2020,04,15,01,44,8.40
2020,04,15,01,45,8.40
2020,04,15,01,46,8.40
2020,04,15,01,47,8.40
2020,04,15,01,48,8.40
2020,04,15,01,49,8.40
2020,04,15,01,50,8.40
2020,04,15,01,51,8.40
2020,04,15,01,52,8.40
2020,04,15,01,53,8.40
2020,04,15,01,54,8.40
2020,04,15,01,55,8.40
2020,04,15,01,56,8.30
2020,04,15,01,57,8.30
2020,04,15,01,58,8.30
2020,04,15,01,59,8.30
2020,04,15,02,00,8.30
2020,04,15,02,01,8.30
2020,04,15,02,02,8.30
2020,04,15,02,03,8.30
2020,04,15,02,04,8.30
2020,04,15,02,05,8.20
2020,04,15,02,06,8.20
2020,04,15,02,07,8.20
2020,04,15,02,08,8.20
2020,04,15,02,09,8.20
2020,04,15,02,10,8.20
2020,04,15,02,11,8.20
2020,04,15,02,12,8.20
2020,04,15,02,13,8.20
2020,04,15,02,14,8.20
2020,04,15,02,15,8.20
2020,04,15,02,16,8.20
2020,04,15,02,17,8.10
2020,04,15,02,18,8.10
2020,04,15,02,19,8.10
2020,04,15,02,20,8.10
2020,04,15,02,21,8.00
2020,04,15,02,22,8.00
2020,04,15,02,23,8.00
2020,04,15,02,24,8.00
2020,04,15,02,25,7.90
2020,04,15,02,26,7.90
2020,04,15,02,27,7.90
2020,04,15,02,28,7.90
2020,04,15,02,29,7.90
2020,04,15,02,30,7.80
2020,04,15,02,31,7.80
2020,04,15,02,32,7.80
2020,04,15,02,33,7.80
2020,04,15,02,34,7.80
2020,04,15,02,35,7.80
2020,04,15,02,36,7.80
2020,04,15,02,37,7.80
2020,04,15,02,38,7.80
2020,04,15,02,39,7.80
2020,04,15,02,40,7.80
2020,04,15,02,41,7.80
2020,04,15,02,42,7.80
2020,04,15,02,43,7.80
2020,04,15,02,44,7.80
2020,04,15,02,45,7.80
2020,04,15,02,46,7.80
2020,04,15,02,47,7.70
2020,04,15,02,48,7.70
2020,04,15,02,49,7.70
2020,04,15,02,50,7.70
2020,04,15,02,51,7.70
2020,04,15,02,52,7.70
2020,04,15,02,53,7.70
2020,04,15,02,54,7.70
2020,04,15,02,55,7.70
2020,04,15,02,56,7.70
2020,04,15,02,57,7.70
2020,04,15,02,58,7.70
2020,04,15,02,59,7.70
2020,04,15,03,00,7.70
2020,04,15,03,01,7.70
2020,04,15,03,02,7.70
2020,04,15,03,03,7.70
2020,04,15,03,04,7.70
2020,04,15,03,05,7.60
2020,04,15,03,06,7.60
2020,04,15,03,07,7.60
2020,04,15,03,08,7.60
2020,04,15,03,09,7.60
2020,04,15,03,10,7.60
2020,04,15,03,11,7.60
2020,04,15,03,12,7.60
2020,04,15,03,13,7.60
2020,04,15,03,14,7.60
2020,04,15,03,15,7.60
2020,04,15,03,16,7.60
2020,04,15,03,17,7.60
2020,04,15,03,18,7.60
2020,04,15,03,19,7.60
2020,04,15,03,20,7.60
2020,04,15,03,21,7.60
2020,04,15,03,22,7.50
2020,04,15,03,23,7.50
2020,04,15,03,24,7.50
2020,04,15,03,25,7.50
2020,04,15,03,26,7.50
2020,04,15,03,27,7.60
2020,04,15,03,28,7.60
2020,04,15,03,29,7.60
2020,04,15,03,30,7.60
2020,04,15,03,31,7.70
2020,04,15,03,32,7.70
2020,04,15,03,33,7.70
2020,04,15,03,34,7.80
2020,04,15,03,35,7.80
2020,04,15,03,36,7.80
2020,04,15,03,37,7.80
2020,04,15,03,38,7.80
2020,04,15,03,39,7.90
2020,04,15,03,40,7.90
2020,04,15,03,41,7.90
2020,04,15,03,42,7.90
2020,04,15,03,43,7.90
2020,04,15,03,44,7.90
2020,04,15,03,45,8.00
2020,04,15,03,46,8.00
2020,04,15,03,47,8.00
2020,04,15,03,48,8.00
2020,04,15,03,49,8.00
2020,04,15,03,50,8.00
2020,04,15,03,51,8.10
2020,04,15,03,52,8.10
2020,04,15,03,53,8.10
2020,04,15,03,54,8.10
2020,04,15,03,55,8.20
2020,04,15,03,56,8.20
2020,04,15,03,57,8.20
2020,04,15,03,58,8.20
2020,04,15,03,59,8.20
2020,04,15,04,00,8.20
2020,04,15,04,01,8.30
2020,04,15,04,02,8.30
2020,04,15,04,03,8.30
2020,04,15,04,04,8.30
2020,04,15,04,05,8.40
2020,04,15,04,06,8.40
2020,04,15,04,07,8.40
2020,04,15,04,08,8.40
2020,04,15,04,09,8.40
2020,04,15,04,10,8.40
2020,04,15,04,11,8.30
2020,04,15,04,12,8.30
2020,04,15,04,13,8.30
2020,04,15,04,14,8.30
2020,04,15,04,15,8.20
2020,04,15,04,16,8.20
2020,04,15,04,17,8.20
2020,04,15,04,18,8.20
2020,04,15,04,19,8.10
2020,04,15,04,20,8.10
2020,04,15,04,21,8.10
2020,04,15,04,22,8.00
2020,04,15,04,23,8.00
2020,04,15,04,24,8.00
2020,04,15,04,25,7.90
2020,04,15,04,26,7.90
2020,04,15,04,27,7.90
2020,04,15,04,28,7.90
2020,04,15,04,29,7.80
2020,04,15,04,30,7.80
2020,04,15,04,31,7.80
2020,04,15,04,32,7.80
2020,04,15,04,33,7.80
2020,04,15,04,34,7.80
2020,04,15,04,35,7.80
2020,04,15,04,36,7.70
2020,04,15,04,37,7.70
2020,04,15,04,38,7.70
2020,04,15,04,39,7.70
2020,04,15,04,40,7.60
2020,04,15,04,41,7.60
2020,04,15,04,42,7.60
2020,04,15,04,43,7.60
2020,04,15,04,44,7.60
2020,04,15,04,45,7.60
2020,04,15,04,46,7.50
2020,04,15,04,47,7.50
2020,04,15,04,48,7.50
2020,04,15,04,49,7.50
2020,04,15,04,50,7.50
2020,04,15,04,51,7.50
2020,04,15,04,52,7.50
2020,04,15,04,53,7.50
2020,04,15,04,54,7.50
2020,04,15,04,55,7.50
2020,04,15,04,56,7.50
2020,04,15,04,57,7.40
2020,04,15,04,58,7.40
2020,04,15,04,59,7.40
2020,04,15,05,00,7.40
2020,04,15,05,01,7.30
2020,04,15,05,02,7.30
2020,04,15,05,03,7.30
2020,04,15,05,04,7.30
2020,04,15,05,05,7.30
2020,04,15,05,06,7.30
2020,04,15,05,07,7.30
2020,04,15,05,08,7.30
2020,04,15,05,09,7.30
2020,04,15,05,10,7.20
2020,04,15,05,11,7.20
2020,04,15,05,12,7.20
2020,04,15,05,13,7.20
2020,04,15,05,14,7.20
2020,04,15,05,15,7.20
2020,04,15,05,16,7.20
2020,04,15,05,17,7.20
2020,04,15,05,18,7.20
2020,04,15,05,19,7.10
2020,04,15,05,20,7.10
2020,04,15,05,21,7.10
2020,04,15,05,22,7.10
2020,04,15,05,23,7.10
2020,04,15,05,24,7.00
2020,04,15,05,25,7.00
2020,04,15,05,26,7.00
2020,04,15,05,27,7.00
2020,04,15,05,28,7.00
2020,04,15,05,29,7.00
2020,04,15,05,30,6.90
2020,04,15,05,31,6.90
2020,04,15,05,32,6.90
2020,04,15,05,33,6.90
2020,04,15,05,34,6.90
2020,04,15,05,35,6.90
2020,04,15,05,36,6.90
2020,04,15,05,37,6.90
2020,04,15,05,38,6.90
2020,04,15,05,39,6.90
2020,04,15,05,40,6.90
2020,04,15,05,41,6.90
2020,04,15,05,42,6.90
2020,04,15,05,43,6.90
2020,04,15,05,44,6.90
2020,04,15,05,45,6.90
2020,04,15,05,46,6.90
2020,04,15,05,47,6.90
2020,04,15,05,48,6.90
2020,04,15,05,49,6.90
2020,04,15,05,50,6.90
2020,04,15,05,51,6.90
2020,04,15,05,52,6.90
2020,04,15,05,53,6.90
2020,04,15,05,54,6.90
2020,04,15,05,55,6.80
2020,04,15,05,56,6.80
2020,04,15,05,57,6.80
2020,04,15,05,58,6.80
2020,04,15,05,59,6.80
2020,04,15,06,00,6.80
2020,04,15,06,01,6.80
2020,04,15,06,02,6.80
2020,04,15,06,03,6.80
2020,04,15,06,04,6.80
2020,04,15,06,05,6.80
2020,04,15,06,06,6.80
2020,04,15,06,07,6.80
2020,04,15,06,08,6.80
2020,04,15,06,09,6.80
2020,04,15,06,10,6.80
2020,04,15,06,11,6.80
2020,04,15,06,12,6.80
2020,04,15,06,13,6.80
2020,04,15,06,14,6.80
2020,04,15,06,15,6.80
2020,04,15,06,16,6.80
2020,04,15,06,17,6.80
2020,04,15,06,18,6.80
2020,04,15,06,19,6.80
2020,04,15,06,20,6.80
2020,04,15,06,21,6.80
2020,04,15,06,22,6.80
2020,04,15,06,23,6.80
2020,04,15,06,24,6.80
2020,04,15,06,25,6.80
2020,04,15,06,26,6.80
2020,04,15,06,27,6.80
2020,04,15,06,28,6.70
2020,04,15,06,29,6.70
2020,04,15,06,30,6.70
2020,04,15,06,31,6.70
2020,04,15,06,32,6.70
2020,04,15,06,33,6.60
2020,04,15,06,34,6.60
2020,04,15,06,35,6.60
2020,04,15,06,36,6.60
2020,04,15,06,37,6.60
2020,04,15,06,38,6.60
2020,04,15,06,39,6.60
2020,04,15,06,40,6.60
2020,04,15,06,41,6.60
2020,04,15,06,42,6.60
2020,04,15,06,43,6.60
2020,04,15,06,44,6.60
2020,04,15,06,45,6.60
2020,04,15,06,46,6.60
2020,04,15,06,47,6.60
2020,04,15,06,48,6.60
2020,04,15,06,49,6.60
2020,04,15,06,50,6.60
2020,04,15,06,51,6.70
2020,04,15,06,52,6.70
2020,04,15,06,53,6.80
2020,04,15,06,54,6.80
2020,04,15,06,55,6.80
2020,04,15,06,56,6.80
2020,04,15,06,57,6.90
2020,04,15,06,58,6.90
2020,04,15,06,59,6.90
2020,04,15,07,00,6.90
2020,04,15,07,01,7.00
2020,04,15,07,02,7.00
2020,04,15,07,03,7.00
2020,04,15,07,04,7.10
2020,04,15,07,05,7.10
2020,04,15,07,06,7.10
2020,04,15,07,07,7.10
2020,04,15,07,08,7.20
2020,04,15,07,09,7.20
2020,04,15,07,10,7.20
2020,04,15,07,11,7.30
2020,04,15,07,12,7.30
2020,04,15,07,13,7.30
2020,04,15,07,14,7.30
2020,04,15,07,15,7.30
2020,04,15,07,16,7.40
2020,04,15,07,17,7.40
2020,04,15,07,18,7.40
2020,04,15,07,19,7.40
2020,04,15,07,20,7.40
2020,04,15,07,21,7.40
2020,04,15,07,22,7.50
2020,04,15,07,23,7.50
2020,04,15,07,24,7.50
2020,04,15,07,25,7.50
2020,04,15,07,26,7.50
2020,04,15,07,27,7.60
2020,04,15,07,28,7.60
2020,04,15,07,29,7.60
2020,04,15,07,30,7.60
2020,04,15,07,31,7.60
2020,04,15,07,32,7.70
2020,04,15,07,33,7.70
2020,04,15,07,34,7.70
2020,04,15,07,35,7.70
2020,04,15,07,36,7.70
2020,04,15,07,37,7.70
2020,04,15,07,38,7.80
2020,04,15,07,39,7.80
2020,04,15,07,40,7.80
2020,04,15,07,41,7.80
2020,04,15,07,42,7.80
2020,04,15,07,43,7.80
2020,04,15,07,44,7.80
2020,04,15,07,45,7.80
2020,04,15,07,46,7.90
2020,04,15,07,47,7.90
2020,04,15,07,48,7.90
2020,04,15,07,49,7.90
2020,04,15,07,50,8.00
2020,04,15,07,51,8.00
2020,04,15,07,52,8.00
2020,04,15,07,53,8.10
2020,04,15,07,54,8.10
2020,04,15,07,55,8.20
2020,04,15,07,56,8.20
2020,04,15,07,57,8.20
2020,04,15,07,58,8.30
2020,04,15,07,59,8.40
2020,04,15,08,00,8.40
2020,04,15,08,01,8.50
2020,04,15,08,02,8.60
2020,04,15,08,03,8.60
2020,04,15,08,04,8.70
2020,04,15,08,05,8.70
2020,04,15,08,06,8.80
2020,04,15,08,07,8.90
2020,04,15,08,08,8.90
2020,04,15,08,09,9.00
2020,04,15,08,10,9.00
2020,04,15,08,11,9.10
2020,04,15,08,12,9.10
2020,04,15,08,13,9.20
2020,04,15,08,14,9.20
2020,04,15,08,15,9.20
2020,04,15,08,16,9.20
2020,04,15,08,17,9.20
2020,04,15,08,18,9.20
2020,04,15,08,19,9.20
2020,04,15,08,20,9.20
2020,04,15,08,21,9.20
2020,04,15,08,22,9.20
2020,04,15,08,23,9.20
2020,04,15,08,24,9.20
2020,04,15,08,25,9.20
2020,04,15,08,26,9.20
2020,04,15,08,27,9.20
2020,04,15,08,28,9.20
2020,04,15,08,29,9.20
2020,04,15,08,30,9.20
2020,04,15,08,31,9.20
2020,04,15,08,32,9.20
2020,04,15,08,33,9.20
2020,04,15,08,34,9.20
2020,04,15,08,35,9.20
2020,04,15,08,36,9.20
2020,04,15,08,37,9.20
2020,04,15,08,38,9.20
2020,04,15,08,39,9.20
2020,04,15,08,40,9.20
2020,04,15,08,41,9.20
2020,04,15,08,42,9.20
2020,04,15,08,43,9.20
2020,04,15,08,44,9.20
2020,04,15,08,45,9.30
2020,04,15,08,46,9.30
2020,04,15,08,47,9.40
2020,04,15,08,48,9.40
2020,04,15,08,49,9.40
2020,04,15,08,50,9.50
2020,04,15,08,51,9.50
2020,04,15,08,52,9.60
2020,04,15,08,53,9.70
2020,04,15,08,54,9.70
2020,04,15,08,55,9.70
2020,04,15,08,56,9.80
2020,04,15,08,57,9.80
2020,04,15,08,58,9.80
2020,04,15,08,59,9.90
2020,04,15,09,00,9.90
2020,04,15,09,01,10.00
2020,04,15,09,02,10.10
2020,04,15,09,03,10.10
2020,04,15,09,04,10.10
2020,04,15,09,05,10.10
2020,04,15,09,06,10.20
2020,04,15,09,07,10.20
2020,04,15,09,08,10.30
2020,04,15,09,09,10.40
2020,04,15,09,10,10.40
2020,04,15,09,11,10.50
2020,04,15,09,12,10.60
2020,04,15,09,13,10.60
2020,04,15,09,14,10.70
2020,04,15,09,15,10.80
2020,04,15,09,16,10.90
2020,04,15,09,17,10.90
2020,04,15,09,18,11.00
2020,04,15,09,19,11.10
2020,04,15,09,20,11.10
2020,04,15,09,21,11.10
2020,04,15,09,22,11.10
2020,04,15,09,23,11.20
2020,04,15,09,24,11.20
2020,04,15,09,25,11.30
2020,04,15,09,26,11.30
2020,04,15,09,27,11.30
2020,04,15,09,28,11.40
2020,04,15,09,29,11.40
2020,04,15,09,30,11.40
2020,04,15,09,31,11.60
2020,04,15,09,32,11.60
2020,04,15,09,33,11.60
2020,04,15,09,34,11.60
2020,04,15,09,35,11.60
2020,04,15,09,36,11.60
2020,04,15,09,37,11.60
2020,04,15,09,38,11.60
2020,04,15,09,39,11.60
2020,04,15,09,40,11.70
2020,04,15,09,41,11.70
2020,04,15,09,42,11.80
2020,04,15,09,43,11.80
2020,04,15,09,44,11.80
2020,04,15,09,45,11.90
2020,04,15,09,46,11.90
2020,04,15,09,47,11.90
2020,04,15,09,48,11.80
2020,04,15,09,49,11.90
2020,04,15,09,50,11.90
2020,04,15,09,51,11.90
2020,04,15,09,52,11.80
2020,04,15,09,53,11.80
2020,04,15,09,54,11.80
2020,04,15,09,55,11.70
2020,04,15,09,56,11.80
2020,04,15,09,57,11.80
2020,04,15,09,58,11.80
2020,04,15,09,59,11.80
2020,04,15,10,00,11.70
2020,04,15,10,01,11.80
2020,04,15,10,02,11.80
2020,04,15,10,03,11.80
2020,04,15,10,04,11.80
2020,04,15,10,05,11.90
2020,04,15,10,06,11.90
2020,04,15,10,07,12.00
2020,04,15,10,08,12.10
2020,04,15,10,09,12.10
2020,04,15,10,10,12.20
2020,04,15,10,11,12.20
2020,04,15,10,12,12.30
2020,04,15,10,13,12.30
2020,04,15,10,14,12.30
2020,04,15,10,15,12.40
2020,04,15,10,16,12.50
2020,04,15,10,17,12.60
2020,04,15,10,18,12.70
2020,04,15,10,19,12.80
2020,04,15,10,20,12.80
2020,04,15,10,21,12.90
2020,04,15,10,22,12.90
2020,04,15,10,23,13.00
2020,04,15,10,24,13.00
2020,04,15,10,25,13.10
2020,04,15,10,26,13.20
2020,04,15,10,27,13.30
2020,04,15,10,28,13.30
2020,04,15,10,29,13.40
2020,04,15,10,30,13.50
2020,04,15,10,31,13.50
2020,04,15,10,32,13.50
2020,04,15,10,33,13.50
2020,04,15,10,34,13.50
2020,04,15,10,35,13.60
2020,04,15,10,36,13.60
2020,04,15,10,37,13.60
2020,04,15,10,38,13.60
2020,04,15,10,39,13.60
2020,04,15,10,40,13.60
2020,04,15,10,41,13.70
2020,04,15,10,42,13.70
2020,04,15,10,43,13.70
2020,04,15,10,44,13.70
2020,04,15,10,45,13.70
2020,04,15,10,46,13.80
2020,04,15,10,47,13.80
2020,04,15,10,48,13.90
2020,04,15,10,49,14.00
2020,04,15,10,50,14.00
2020,04,15,10,51,14.00
2020,04,15,10,52,14.00
2020,04,15,10,53,14.00
2020,04,15,10,54,14.00
2020,04,15,10,55,13.90
2020,04,15,10,56,13.90
2020,04,15,10,57,13.90
2020,04,15,10,58,14.00
2020,04,15,10,59,14.00
2020,04,15,11,00,14.10
2020,04,15,11,01,14.10
2020,04,15,11,02,14.20
2020,04,15,11,03,14.20
2020,04,15,11,04,14.40
2020,04,15,11,05,14.50
2020,04,15,11,06,14.60
2020,04,15,11,07,14.70
2020,04,15,11,08,14.80
2020,04,15,11,09,15.00
2020,04,15,11,10,15.10
2020,04,15,11,11,15.20
2020,04,15,11,12,15.20
2020,04,15,11,13,15.30
2020,04,15,11,14,15.30
2020,04,15,11,15,15.40
2020,04,15,11,16,15.50
2020,04,15,11,17,15.60
2020,04,15,11,18,15.60
2020,04,15,11,19,15.60
2020,04,15,11,20,15.60
2020,04,15,11,21,15.70
2020,04,15,11,22,15.70
2020,04,15,11,23,15.80
2020,04,15,11,24,15.80
2020,04,15,11,25,15.80
2020,04,15,11,26,15.80
2020,04,15,11,27,15.80
2020,04,15,11,28,15.70
2020,04,15,11,29,15.70
2020,04,15,11,30,15.70
2020,04,15,11,31,15.70
2020,04,15,11,32,15.80
2020,04,15,11,33,15.80
2020,04,15,11,34,15.90
2020,04,15,11,35,15.90
2020,04,15,11,36,15.90
2020,04,15,11,37,15.90
2020,04,15,11,38,15.80
2020,04,15,11,39,15.80
2020,04,15,11,40,15.80
2020,04,15,11,41,15.70
2020,04,15,11,42,15.70
2020,04,15,11,43,15.70
2020,04,15,11,44,15.70
2020,04,15,11,45,15.60
2020,04,15,11,46,15.50
2020,04,15,11,47,15.60
2020,04,15,11,48,15.60
2020,04,15,11,49,15.50
2020,04,15,11,50,15.50
2020,04,15,11,51,15.40
2020,04,15,11,52,15.40
2020,04,15,11,53,15.50
2020,04,15,11,54,15.60
2020,04,15,11,55,15.60
2020,04,15,11,56,15.60
2020,04,15,11,57,15.70
2020,04,15,11,58,15.80
2020,04,15,11,59,15.80
2020,04,15,12,00,15.80
2020,04,15,12,01,15.80
2020,04,15,12,02,15.80
2020,04,15,12,03,15.90
2020,04,15,12,04,15.90
2020,04,15,12,05,16.00
2020,04,15,12,06,16.10
2020,04,15,12,07,16.00
2020,04,15,12,08,15.90
2020,04,15,12,09,15.80
2020,04,15,12,10,15.80
2020,04,15,12,11,15.80
2020,04,15,12,12,15.80
2020,04,15,12,13,15.90
2020,04,15,12,14,16.00
2020,04,15,12,15,16.00
2020,04,15,12,16,15.90
2020,04,15,12,17,16.00
2020,04,15,12,18,15.90
2020,04,15,12,19,15.90
2020,04,15,12,20,15.80
2020,04,15,12,21,15.80
2020,04,15,12,22,15.90
2020,04,15,12,23,16.00
2020,04,15,12,24,16.10
2020,04,15,12,25,16.20
2020,04,15,12,26,16.30
2020,04,15,12,27,16.40
2020,04,15,12,28,16.50
2020,04,15,12,29,16.60
2020,04,15,12,30,16.60
2020,04,15,12,31,16.70
2020,04,15,12,32,16.60
2020,04,15,12,33,16.60
2020,04,15,12,34,16.60
2020,04,15,12,35,16.50
2020,04,15,12,36,16.40
2020,04,15,12,37,16.40
2020,04,15,12,38,16.40
2020,04,15,12,39,16.40
2020,04,15,12,40,16.50
2020,04,15,12,41,16.60
2020,04,15,12,42,16.70
2020,04,15,12,43,16.70
2020,04,15,12,44,16.80
2020,04,15,12,45,16.90
2020,04,15,12,46,16.90
2020,04,15,12,47,16.90
2020,04,15,12,48,16.90
2020,04,15,12,49,16.90
2020,04,15,12,50,17.00
2020,04,15,12,51,17.10
2020,04,15,12,52,17.00
2020,04,15,12,53,17.00
2020,04,15,12,54,17.00
2020,04,15,12,55,17.00
2020,04,15,12,56,17.00
2020,04,15,12,57,16.90
2020,04,15,12,58,17.00
2020,04,15,12,59,17.00
2020,04,15,13,00,17.00
2020,04,15,13,01,17.00
2020,04,15,13,02,17.10
2020,04,15,13,03,17.10
2020,04,15,13,04,17.20
2020,04,15,13,05,17.20
2020,04,15,13,06,17.20
2020,04,15,13,07,17.10
2020,04,15,13,08,17.10
2020,04,15,13,09,17.10
2020,04,15,13,10,17.00
2020,04,15,13,11,17.00
2020,04,15,13,12,17.00
2020,04,15,13,13,17.00
2020,04,15,13,14,17.00
2020,04,15,13,15,16.90
2020,04,15,13,16,16.90
2020,04,15,13,17,16.90
2020,04,15,13,18,16.90
2020,04,15,13,19,17.00
2020,04,15,13,20,17.10
2020,04,15,13,21,17.10
2020,04,15,13,22,17.20
2020,04,15,13,23,17.30
2020,04,15,13,24,17.30
2020,04,15,13,25,17.30
2020,04,15,13,26,17.40
2020,04,15,13,27,17.40
2020,04,15,13,28,17.50
2020,04,15,13,29,17.40
2020,04,15,13,30,17.40
2020,04,15,13,31,17.30
2020,04,15,13,32,17.30
2020,04,15,13,33,17.30
2020,04,15,13,34,17.30
2020,04,15,13,35,17.30
2020,04,15,13,36,17.30
2020,04,15,13,37,17.30
2020,04,15,13,38,17.30
2020,04,15,13,39,17.40
2020,04,15,13,40,17.50
2020,04,15,13,41,17.60
2020,04,15,13,42,17.60
2020,04,15,13,43,17.70
2020,04,15,13,44,17.80
2020,04,15,13,45,17.80
2020,04,15,13,46,17.80
2020,04,15,13,47,17.70
2020,04,15,13,48,17.70
2020,04,15,13,49,17.70
2020,04,15,13,50,17.80
2020,04,15,13,51,17.80
2020,04,15,13,52,17.80
2020,04,15,13,53,17.90
2020,04,15,13,54,17.90
2020,04,15,13,55,17.90
2020,04,15,13,56,18.00
2020,04,15,13,57,17.90
2020,04,15,13,58,17.90
2020,04,15,13,59,17.80
2020,04,15,14,00,17.80
2020,04,15,14,01,17.70
2020,04,15,14,02,17.80
2020,04,15,14,03,17.90
2020,04,15,14,04,17.90
2020,04,15,14,05,18.00
2020,04,15,14,06,18.10
2020,04,15,14,07,18.20
2020,04,15,14,08,18.20
2020,04,15,14,09,18.20
2020,04,15,14,10,18.30
2020,04,15,14,11,18.30
2020,04,15,14,12,18.40
2020,04,15,14,13,18.50
2020,04,15,14,14,18.50
2020,04,15,14,15,18.60
2020,04,15,14,16,18.70
2020,04,15,14,17,18.80
2020,04,15,14,18,18.90
2020,04,15,14,19,18.90
2020,04,15,14,20,19.10
2020,04,15,14,21,19.10
2020,04,15,14,22,19.10
2020,04,15,14,23,19.10
2020,04,15,14,24,19.10
2020,04,15,14,25,19.10
2020,04,15,14,26,19.10
2020,04,15,14,27,19.10
2020,04,15,14,28,19.00
2020,04,15,14,29,18.80
2020,04,15,14,30,18.60
2020,04,15,14,31,18.50
2020,04,15,14,32,18.50
2020,04,15,14,33,18.60
2020,04,15,14,34,18.70
2020,04,15,14,35,18.80
2020,04,15,14,36,18.90
2020,04,15,14,37,18.90
2020,04,15,14,38,18.90
2020,04,15,14,39,19.10
2020,04,15,14,40,19.10
2020,04,15,14,41,19.10
2020,04,15,14,42,19.10
2020,04,15,14,43,19.10
2020,04,15,14,44,19.20
2020,04,15,14,45,19.20
2020,04,15,14,46,19.20
2020,04,15,14,47,19.30
2020,04,15,14,48,19.30
2020,04,15,14,49,19.30
2020,04,15,14,50,19.30
2020,04,15,14,51,19.10
2020,04,15,14,52,19.00
2020,04,15,14,53,18.90
2020,04,15,14,54,18.80
2020,04,15,14,55,18.70
2020,04,15,14,56,18.70
2020,04,15,14,57,18.70
2020,04,15,14,58,18.70
2020,04,15,14,59,18.80
2020,04,15,15,00,18.80
2020,04,15,15,01,18.80
2020,04,15,15,02,18.80
2020,04,15,15,03,18.80
2020,04,15,15,04,18.90
2020,04,15,15,05,18.90
2020,04,15,15,06,18.90
2020,04,15,15,07,18.90
2020,04,15,15,08,18.90
2020,04,15,15,09,18.80
2020,04,15,15,10,18.70
2020,04,15,15,11,18.60
2020,04,15,15,12,18.50
2020,04,15,15,13,18.50
2020,04,15,15,14,18.60
2020,04,15,15,15,18.50
2020,04,15,15,16,18.50
2020,04,15,15,17,18.60
2020,04,15,15,18,18.60
2020,04,15,15,19,18.70
2020,04,15,15,20,18.80
2020,04,15,15,21,18.80
2020,04,15,15,22,18.90
2020,04,15,15,23,18.90
2020,04,15,15,24,18.90
2020,04,15,15,25,18.90
2020,04,15,15,26,18.90
2020,04,15,15,27,18.90
2020,04,15,15,28,18.80
2020,04,15,15,29,18.80
2020,04,15,15,30,18.70
2020,04,15,15,31,18.70
2020,04,15,15,32,18.50
2020,04,15,15,33,18.40
2020,04,15,15,34,18.30
2020,04,15,15,35,18.30
2020,04,15,15,36,18.30
2020,04,15,15,37,18.30
2020,04,15,15,38,18.30
2020,04,15,15,39,18.30
2020,04,15,15,40,18.40
2020,04,15,15,41,18.40
2020,04,15,15,42,18.40
2020,04,15,15,43,18.50
2020,04,15,15,44,18.50
2020,04,15,15,45,18.40
2020,04,15,15,46,18.40
2020,04,15,15,47,18.40
2020,04,15,15,48,18.40
2020,04,15,15,49,18.40
2020,04,15,15,50,18.40
2020,04,15,15,51,18.40
2020,04,15,15,52,18.40
2020,04,15,15,53,18.40
2020,04,15,15,54,18.40
2020,04,15,15,55,18.40
2020,04,15,15,56,18.40
2020,04,15,15,57,18.40
2020,04,15,15,58,18.40
2020,04,15,15,59,18.30
2020,04,15,16,00,18.30
2020,04,15,16,01,18.20
2020,04,15,16,02,18.20
2020,04,15,16,03,18.20
2020,04,15,16,04,18.10
2020,04,15,16,05,18.10
2020,04,15,16,06,18.00
2020,04,15,16,07,17.90
2020,04,15,16,08,17.90
2020,04,15,16,09,17.80
2020,04,15,16,10,17.70
2020,04,15,16,11,17.60
2020,04,15,16,12,17.50
2020,04,15,16,13,17.50
2020,04,15,16,14,17.40
2020,04,15,16,15,17.30
2020,04,15,16,16,17.30
2020,04,15,16,17,17.20
2020,04,15,16,18,17.20
2020,04,15,16,19,17.20
2020,04,15,16,20,17.10
2020,04,15,16,21,17.00
2020,04,15,16,22,17.00
2020,04,15,16,23,16.90
2020,04,15,16,24,16.90
2020,04,15,16,25,16.90
2020,04,15,16,26,16.90
2020,04,15,16,27,16.90
2020,04,15,16,28,16.90
2020,04,15,16,29,16.80
2020,04,15,16,30,16.90
2020,04,15,16,31,16.80
2020,04,15,16,32,16.80
2020,04,15,16,33,16.80
2020,04,15,16,34,16.80
2020,04,15,16,35,16.70
2020,04,15,16,36,16.70
2020,04,15,16,37,16.70
2020,04,15,16,38,16.70
2020,04,15,16,39,16.70
2020,04,15,16,40,16.70
2020,04,15,16,41,16.70
2020,04,15,16,42,16.60
2020,04,15,16,43,16.60
2020,04,15,16,44,16.60
2020,04,15,16,45,16.50
2020,04,15,16,46,16.40
2020,04,15,16,47,16.40
2020,04,15,16,48,16.40
2020,04,15,16,49,16.40
2020,04,15,16,50,16.40
2020,04,15,16,51,16.40
2020,04,15,16,52,16.40
2020,04,15,16,53,16.40
2020,04,15,16,54,16.40
2020,04,15,16,55,16.40
2020,04,15,16,56,16.40
2020,04,15,16,57,16.40
2020,04,15,16,58,16.40
2020,04,15,16,59,16.40
2020,04,15,17,00,16.40
2020,04,15,17,01,16.40
2020,04,15,17,02,16.40
2020,04,15,17,03,16.40
2020,04,15,17,04,16.40
2020,04,15,17,05,16.40
2020,04,15,17,06,16.30
2020,04,15,17,07,16.30
2020,04,15,17,08,16.30
2020,04,15,17,09,16.30
2020,04,15,17,10,16.30
2020,04,15,17,11,16.30
2020,04,15,17,12,16.20
2020,04,15,17,13,16.20
2020,04,15,17,14,16.20
2020,04,15,17,15,16.10
2020,04,15,17,16,16.10
2020,04,15,17,17,16.10
2020,04,15,17,18,16.10
2020,04,15,17,19,16.10
2020,04,15,17,20,16.10
2020,04,15,17,21,16.10
2020,04,15,17,22,16.10
2020,04,15,17,23,16.10
2020,04,15,17,24,16.10
2020,04,15,17,25,16.10
2020,04,15,17,26,16.10
2020,04,15,17,27,16.10
2020,04,15,17,28,16.00
2020,04,15,17,29,15.90
2020,04,15,17,30,15.90
2020,04,15,17,31,15.90
2020,04,15,17,32,15.90
2020,04,15,17,33,15.80
2020,04,15,17,34,15.80
2020,04,15,17,35,15.80
2020,04,15,17,36,15.80
2020,04,15,17,37,15.80
2020,04,15,17,38,15.80
2020,04,15,17,39,15.70
2020,04,15,17,40,15.70
2020,04,15,17,41,15.70
2020,04,15,17,42,15.70